Time,TemperatureF,DewpointF,PressureIn,WindDirection,WindDirectionDegrees,WindSpeedMPH,WindSpeedGustMPH,Humidity,HourlyPrecipIn,Conditions,Clouds,dailyrainin,SoftwareType,DateUTC
2013-03-12 00:00:00,53.8,51.2,29.66,ESE,120,0.0,0.0,91,0.00,RA,OVC,0.00,WeatherDisplay:10.37,2013-03-12 04:00:00,
2013-03-12 00:05:00,53.6,51.0,29.66,ESE,120,0.0,0.0,91,0.02,RA,OVC,0.00,WeatherDisplay:10.37,2013-03-12 04:05:00,
2013-03-12 00:10:00,53.4,50.9,29.66,ESE,120,0.0,0.0,91,0.02,FEW,OVC,0.00,WeatherDisplay:10.37,2013-03-12 04:10:00,
2013-03-12 00:15:00,53.4,50.9,29.66,ESE,120,0.0,0.0,91,0.02,FEW,OVC,0.00,WeatherDisplay:10.37,2013-03-12 04:15:00,
2013-03-12 00:20:00,53.4,50.9,29.66,WNW,300,9.2,9.2,91,0.00,BKN,OVC,0.00,WeatherDisplay:10.37,2013-03-12 04:20:00,
2013-03-12 00:25:00,53.2,50.7,29.66,WNW,300,9.2,9.2,91,0.00,BKN,OVC,0.00,WeatherDisplay:10.37,2013-03-12 04:25:00,
2013-03-12 00:30:00,53.2,50.7,29.66,WNW,300,9.2,9.2,91,0.00,BKN,OVC,0.00,WeatherDisplay:10.37,2013-03-12 04:30:00,
2013-03-12 00:35:00,53.1,50.5,29.66,WNW,300,9.2,9.2,91,0.00,BKN,OVC,0.00,WeatherDisplay:10.37,2013-03-12 04:35:00,
2013-03-12 00:40:00,52.9,50.3,29.66,WNW,300,9.2,9.2,91,0.00,BKN,OVC,0.00,WeatherDisplay:10.37,2013-03-12 04:40:00,
2013-03-12 00:45:00,52.7,50.1,29.66,WNW,300,9.2,9.2,91,0.00,BKN,OVC,0.00,WeatherDisplay:10.37,2013-03-12 04:45:00,
2013-03-12 00:50:00,52.5,50.0,29.65,West,280,9.2,9.2,91,0.00,BKN,OVC,0.00,WeatherDisplay:10.37,2013-03-12 04:50:00,
2013-03-12 00:55:00,52.5,50.0,29.65,West,280,9.2,9.2,91,0.00,BKN,OVC,0.00,WeatherDisplay:10.37,2013-03-12 04:55:00,
2013-03-12 01:00:00,52.3,49.8,29.65,West,280,9.2,9.2,91,0.00,BKN,OVC,0.00,WeatherDisplay:10.37,2013-03-12 05:00:00,
2013-03-12 01:05:00,52.3,49.8,29.65,West,280,9.2,9.2,91,0.00,BKN,OVC,0.00,WeatherDisplay:10.37,2013-03-12 05:05:00,
2013-03-12 01:10:00,52.0,49.4,29.65,West,280,9.2,9.2,91,0.00,BKN,OVC,0.00,WeatherDisplay:10.37,2013-03-12 05:10:00,
2013-03-12 01:15:00,51.8,49.3,29.65,West,280,9.2,9.2,91,0.00,BKN,OVC,0.00,WeatherDisplay:10.37,2013-03-12 05:15:00,
2013-03-12 01:20:00,51.6,49.1,29.65,WNW,290,9.2,9.2,91,0.00,OVC,,0.00,WeatherDisplay:10.37,2013-03-12 05:20:00,
2013-03-12 01:25:00,51.6,49.1,29.65,WNW,290,9.2,9.2,91,0.00,OVC,,0.00,WeatherDisplay:10.37,2013-03-12 05:25:00,
2013-03-12 01:30:00,51.4,48.9,29.65,WNW,290,9.2,9.2,91,0.00,OVC,,0.00,WeatherDisplay:10.37,2013-03-12 05:30:00,
2013-03-12 01:35:00,51.4,48.9,29.65,WNW,290,9.2,9.2,91,0.00,OVC,,0.00,WeatherDisplay:10.37,2013-03-12 05:35:00,
2013-03-12 01:40:00,51.3,48.7,29.65,WNW,290,9.2,9.2,91,0.00,OVC,,0.00,WeatherDisplay:10.37,2013-03-12 05:40:00,
2013-03-12 01:45:00,51.1,48.5,29.65,WNW,290,9.2,9.2,91,0.00,OVC,,0.00,WeatherDisplay:10.37,2013-03-12 05:45:00,
2013-03-12 01:50:00,51.1,48.5,29.65,WNW,290,9.2,9.2,91,0.00,OVC,,0.00,WeatherDisplay:10.37,2013-03-12 05:50:00,
2013-03-12 01:55:00,50.9,48.4,29.65,WNW,290,9.2,9.2,91,0.00,OVC,,0.00,WeatherDisplay:10.37,2013-03-12 05:55:00,
2013-03-12 02:00:00,50.7,48.2,29.65,WNW,290,9.2,9.2,91,0.00,OVC,,0.00,WeatherDisplay:10.37,2013-03-12 06:00:00,
2013-03-12 02:05:00,50.7,47.9,29.65,WNW,290,9.2,9.2,90,0.00,OVC,,0.00,WeatherDisplay:10.37,2013-03-12 06:05:00,
2013-03-12 02:11:00,50.5,47.7,29.65,WNW,290,9.2,9.2,90,0.00,OVC,,0.00,WeatherDisplay:10.37,2013-03-12 06:11:00,
2013-03-12 02:16:00,50.2,47.4,29.65,WNW,290,9.2,9.2,90,0.00,OVC,,0.00,WeatherDisplay:10.37,2013-03-12 06:16:00,
2013-03-12 02:21:00,50.2,47.4,29.65,West,270,9.2,9.2,90,0.00,OVC,,0.00,WeatherDisplay:10.37,2013-03-12 06:21:00,
2013-03-12 02:26:00,49.8,47.0,29.65,West,270,9.2,9.2,90,0.00,OVC,,0.00,WeatherDisplay:10.37,2013-03-12 06:26:00,
2013-03-12 02:31:00,49.8,47.0,29.65,West,270,9.2,9.2,90,0.00,OVC,,0.00,WeatherDisplay:10.37,2013-03-12 06:31:00,
2013-03-12 02:36:00,49.6,46.8,29.65,West,270,9.2,9.2,90,0.00,OVC,,0.00,WeatherDisplay:10.37,2013-03-12 06:36:00,
2013-03-12 02:41:00,49.6,46.8,29.65,West,270,9.2,9.2,90,0.00,OVC,,0.00,WeatherDisplay:10.37,2013-03-12 06:41:00,
2013-03-12 02:46:00,49.3,46.5,29.65,West,270,9.2,9.2,90,0.00,OVC,,0.00,WeatherDisplay:10.37,2013-03-12 06:46:00,
2013-03-12 02:51:00,49.3,46.5,29.65,West,280,11.5,11.5,90,0.00,OVC,,0.00,WeatherDisplay:10.37,2013-03-12 06:51:00,
2013-03-12 02:56:00,49.1,46.3,29.66,West,280,11.5,11.5,90,0.00,OVC,,0.00,WeatherDisplay:10.37,2013-03-12 06:56:00,
2013-03-12 03:01:00,48.7,45.9,29.66,West,280,11.5,11.5,90,0.00,OVC,,0.00,WeatherDisplay:10.37,2013-03-12 07:01:00,
2013-03-12 03:06:00,48.6,45.5,29.65,West,280,11.5,11.5,89,0.00,OVC,,0.00,WeatherDisplay:10.37,2013-03-12 07:06:00,
2013-03-12 03:11:00,48.4,45.3,29.66,West,280,11.5,11.5,89,0.00,OVC,,0.00,WeatherDisplay:10.37,2013-03-12 07:11:00,
2013-03-12 03:16:00,48.2,45.1,29.65,West,280,11.5,11.5,89,0.00,OVC,,0.00,WeatherDisplay:10.37,2013-03-12 07:16:00,
2013-03-12 03:21:00,47.8,44.8,29.65,West,260,11.5,11.5,89,0.00,OVC,,0.00,WeatherDisplay:10.37,2013-03-12 07:21:00,
2013-03-12 03:26:00,47.7,44.6,29.65,West,260,11.5,11.5,89,0.00,OVC,,0.00,WeatherDisplay:10.37,2013-03-12 07:26:00,
2013-03-12 03:31:00,47.3,44.2,29.65,West,260,11.5,11.5,89,0.00,OVC,,0.00,WeatherDisplay:10.37,2013-03-12 07:31:00,
2013-03-12 03:36:00,46.9,43.9,29.65,West,260,11.5,11.5,89,0.00,OVC,,0.00,WeatherDisplay:10.37,2013-03-12 07:36:00,
2013-03-12 03:41:00,46.8,43.7,29.65,West,260,11.5,11.5,89,0.00,OVC,,0.00,WeatherDisplay:10.37,2013-03-12 07:41:00,
2013-03-12 03:46:00,46.8,43.7,29.65,West,260,11.5,11.5,89,0.00,OVC,,0.00,WeatherDisplay:10.37,2013-03-12 07:46:00,
2013-03-12 03:51:00,46.2,43.2,29.65,West,260,11.5,11.5,89,0.00,OVC,,0.00,WeatherDisplay:10.37,2013-03-12 07:51:00,
2013-03-12 03:56:00,46.2,43.2,29.65,West,260,11.5,11.5,89,0.00,OVC,,0.00,WeatherDisplay:10.37,2013-03-12 07:56:00,
2013-03-12 04:01:00,46.0,43.0,29.65,West,260,11.5,11.5,89,0.00,OVC,,0.00,WeatherDisplay:10.37,2013-03-12 08:01:00,
2013-03-12 04:06:00,46.0,43.0,29.65,West,260,11.5,11.5,89,0.00,OVC,,0.00,WeatherDisplay:10.37,2013-03-12 08:06:00,
2013-03-12 04:11:00,46.0,43.0,29.65,West,260,11.5,11.5,89,0.00,OVC,,0.00,WeatherDisplay:10.37,2013-03-12 08:11:00,
2013-03-12 04:16:00,45.9,43.1,29.65,West,260,11.5,11.5,90,0.00,OVC,,0.00,WeatherDisplay:10.37,2013-03-12 08:16:00,
2013-03-12 04:21:00,45.9,42.8,29.65,West,260,11.5,11.5,89,0.00,OVC,,0.00,WeatherDisplay:10.37,2013-03-12 08:21:00,
2013-03-12 04:26:00,45.7,42.9,29.65,West,260,11.5,11.5,90,0.00,OVC,,0.00,WeatherDisplay:10.37,2013-03-12 08:26:00,
2013-03-12 04:31:00,45.7,42.9,29.65,West,260,11.5,11.5,90,0.00,OVC,,0.00,WeatherDisplay:10.37,2013-03-12 08:31:00,
2013-03-12 04:36:00,45.5,42.7,29.65,West,260,11.5,11.5,90,0.00,OVC,,0.00,WeatherDisplay:10.37,2013-03-12 08:36:00,
2013-03-12 04:41:00,45.5,42.7,29.65,West,260,11.5,11.5,90,0.00,OVC,,0.00,WeatherDisplay:10.37,2013-03-12 08:41:00,
2013-03-12 04:46:00,45.3,42.6,29.65,West,260,11.5,11.5,90,0.00,OVC,,0.00,WeatherDisplay:10.37,2013-03-12 08:46:00,
2013-03-12 04:51:00,45.1,42.4,29.65,West,260,11.5,11.5,90,0.00,OVC,,0.00,WeatherDisplay:10.37,2013-03-12 08:51:00,
2013-03-12 04:56:00,45.1,42.4,29.67,West,260,11.5,11.5,90,0.00,OVC,,0.00,WeatherDisplay:10.37,2013-03-12 08:56:00,
2013-03-12 05:01:00,45.1,42.4,29.66,West,260,11.5,11.5,90,0.00,OVC,,0.00,WeatherDisplay:10.37,2013-03-12 09:01:00,
2013-03-12 05:06:00,45.1,42.4,29.66,West,260,11.5,11.5,90,0.00,OVC,,0.00,WeatherDisplay:10.37,2013-03-12 09:06:00,
2013-03-12 05:11:00,45.0,42.2,29.66,West,260,11.5,11.5,90,0.00,OVC,,0.00,WeatherDisplay:10.37,2013-03-12 09:11:00,
2013-03-12 05:16:00,45.0,42.2,29.66,West,260,11.5,11.5,90,0.00,OVC,,0.00,WeatherDisplay:10.37,2013-03-12 09:16:00,
2013-03-12 05:21:00,44.8,42.0,29.66,West,280,10.4,10.4,90,0.00,OVC,,0.00,WeatherDisplay:10.37,2013-03-12 09:21:00,
2013-03-12 05:26:00,44.8,42.0,29.67,West,280,10.4,10.4,90,0.00,OVC,,0.00,WeatherDisplay:10.37,2013-03-12 09:26:00,
2013-03-12 05:31:00,44.6,41.8,29.67,West,280,10.4,10.4,90,0.00,OVC,,0.00,WeatherDisplay:10.37,2013-03-12 09:31:00,
2013-03-12 05:36:00,44.4,41.7,29.67,West,280,10.4,10.4,90,0.00,OVC,,0.00,WeatherDisplay:10.37,2013-03-12 09:36:00,
2013-03-12 05:41:00,44.2,41.5,29.67,West,280,10.4,10.4,90,0.00,OVC,,0.00,WeatherDisplay:10.37,2013-03-12 09:41:00,
2013-03-12 05:46:00,44.2,41.5,29.67,West,280,10.4,10.4,90,0.00,OVC,,0.00,WeatherDisplay:10.37,2013-03-12 09:46:00,
2013-03-12 05:51:00,44.1,41.3,29.67,West,280,10.4,10.4,90,0.00,OVC,,0.00,WeatherDisplay:10.37,2013-03-12 09:51:00,
2013-03-12 05:56:00,43.9,41.1,29.67,West,280,10.4,10.4,90,0.00,OVC,,0.00,WeatherDisplay:10.37,2013-03-12 09:56:00,
2013-03-12 06:01:00,43.9,41.1,29.67,West,280,10.4,10.4,90,0.00,OVC,,0.00,WeatherDisplay:10.37,2013-03-12 10:01:00,
2013-03-12 06:06:00,43.7,41.0,29.67,West,280,10.4,10.4,90,0.00,OVC,,0.00,WeatherDisplay:10.37,2013-03-12 10:06:00,
2013-03-12 06:11:00,43.7,40.7,29.67,West,280,10.4,10.4,89,0.00,OVC,,0.00,WeatherDisplay:10.37,2013-03-12 10:11:00,
2013-03-12 06:16:00,43.5,40.5,29.67,West,280,10.4,10.4,89,0.00,OVC,,0.00,WeatherDisplay:10.37,2013-03-12 10:16:00,
2013-03-12 06:21:00,43.5,40.5,29.67,West,270,9.2,9.2,89,0.00,OVC,,0.00,WeatherDisplay:10.37,2013-03-12 10:21:00,
2013-03-12 06:26:00,43.5,40.5,29.68,West,270,9.2,9.2,89,0.00,OVC,,0.00,WeatherDisplay:10.37,2013-03-12 10:26:00,
2013-03-12 06:31:00,43.3,40.3,29.68,West,270,9.2,9.2,89,0.00,OVC,,0.00,WeatherDisplay:10.37,2013-03-12 10:31:00,
2013-03-12 06:36:00,43.2,40.1,29.68,West,270,9.2,9.2,89,0.00,OVC,,0.00,WeatherDisplay:10.37,2013-03-12 10:36:00,
2013-03-12 06:41:00,43.0,40.0,29.70,West,270,9.2,9.2,89,0.00,OVC,,0.00,WeatherDisplay:10.37,2013-03-12 10:41:00,
2013-03-12 06:46:00,43.0,40.0,29.69,West,270,9.2,9.2,89,0.00,OVC,,0.00,WeatherDisplay:10.37,2013-03-12 10:46:00,
2013-03-12 06:51:00,42.6,39.6,29.70,West,280,9.2,9.2,89,0.00,OVC,,0.00,WeatherDisplay:10.37,2013-03-12 10:51:00,
2013-03-12 06:56:00,42.6,39.6,29.70,West,280,9.2,9.2,89,0.00,OVC,,0.00,WeatherDisplay:10.37,2013-03-12 10:56:00,
2013-03-12 07:01:00,42.6,39.6,29.70,West,280,9.2,9.2,89,0.00,OVC,,0.00,WeatherDisplay:10.37,2013-03-12 11:01:00,
2013-03-12 07:06:00,42.6,39.9,29.70,West,280,9.2,9.2,90,0.00,OVC,,0.00,WeatherDisplay:10.37,2013-03-12 11:06:00,
2013-03-12 07:11:00,42.4,39.4,29.70,West,280,9.2,9.2,89,0.00,SCT,OVC,0.00,WeatherDisplay:10.37,2013-03-12 11:11:00,
2013-03-12 07:16:00,42.4,39.4,29.71,West,270,9.2,9.2,89,0.00,FEW,OVC,0.00,WeatherDisplay:10.37,2013-03-12 11:16:00,
2013-03-12 07:21:00,42.1,39.1,29.71,West,270,8.1,8.1,89,0.00,OVC,,0.00,WeatherDisplay:10.37,2013-03-12 11:21:00,
2013-03-12 07:26:00,41.9,38.9,29.72,West,270,8.1,8.1,89,0.00,FEW,OVC,0.00,WeatherDisplay:10.37,2013-03-12 11:26:00,
2013-03-12 07:31:00,41.7,38.7,29.72,West,270,8.1,8.1,89,0.00,FEW,OVC,0.00,WeatherDisplay:10.37,2013-03-12 11:31:00,
2013-03-12 07:36:00,41.5,38.5,29.72,West,270,8.1,8.1,89,0.00,OVC,,0.00,WeatherDisplay:10.37,2013-03-12 11:36:00,
2013-03-12 07:41:00,41.4,38.4,29.72,West,270,8.1,8.1,89,0.00,FEW,OVC,0.00,WeatherDisplay:10.37,2013-03-12 11:41:00,
2013-03-12 07:46:00,41.2,37.9,29.72,West,270,8.1,8.1,88,0.00,OVC,,0.00,WeatherDisplay:10.37,2013-03-12 11:46:00,
2013-03-12 07:51:00,41.0,37.7,29.73,West,270,8.1,8.1,88,0.00,OVC,,0.00,WeatherDisplay:10.37,2013-03-12 11:51:00,
2013-03-12 07:56:00,40.8,37.8,29.72,West,270,8.1,8.1,89,0.00,FEW,OVC,0.00,WeatherDisplay:10.37,2013-03-12 11:56:00,
2013-03-12 08:01:00,40.8,37.8,29.73,West,270,8.1,8.1,89,0.00,FEW,OVC,0.00,WeatherDisplay:10.37,2013-03-12 12:01:00,
2013-03-12 08:06:00,40.6,37.7,29.73,West,270,8.1,8.1,89,0.00,OVC,,0.00,WeatherDisplay:10.37,2013-03-12 12:06:00,
2013-03-12 08:11:00,40.6,37.7,29.73,West,270,8.1,8.1,89,0.00,FEW,OVC,0.00,WeatherDisplay:10.37,2013-03-12 12:11:00,
2013-03-12 08:16:00,40.3,37.3,29.74,West,270,8.1,8.1,89,0.00,OVC,,0.00,WeatherDisplay:10.37,2013-03-12 12:16:00,
2013-03-12 08:21:00,40.3,37.3,29.73,WNW,290,23.0,23.0,89,0.00,SCT,OVC,0.00,WeatherDisplay:10.37,2013-03-12 12:21:00,
2013-03-12 08:26:00,40.3,37.3,29.73,WNW,290,23.0,23.0,89,0.00,SCT,OVC,0.00,WeatherDisplay:10.37,2013-03-12 12:26:00,
2013-03-12 08:31:00,40.1,37.1,29.74,WNW,290,23.0,23.0,89,0.00,SCT,OVC,0.00,WeatherDisplay:10.37,2013-03-12 12:31:00,
2013-03-12 08:36:00,39.9,36.9,29.73,WNW,290,23.0,23.0,89,0.00,SCT,OVC,0.00,WeatherDisplay:10.37,2013-03-12 12:36:00,
2013-03-12 08:41:00,39.9,36.9,29.73,WNW,290,23.0,23.0,89,0.00,SCT,OVC,0.00,WeatherDisplay:10.37,2013-03-12 12:41:00,
2013-03-12 08:46:00,39.9,36.9,29.73,WNW,290,23.0,23.0,89,0.00,SCT,OVC,0.00,WeatherDisplay:10.37,2013-03-12 12:46:00,
2013-03-12 08:51:00,40.1,37.4,29.73,WNW,290,23.0,23.0,90,0.00,SCT,OVC,0.00,WeatherDisplay:10.37,2013-03-12 12:51:00,
2013-03-12 08:56:00,40.1,37.4,29.73,WNW,290,23.0,23.0,90,0.00,SCT,OVC,0.00,WeatherDisplay:10.37,2013-03-12 12:56:00,
2013-03-12 09:01:00,40.3,37.6,29.74,WNW,290,23.0,23.0,90,0.00,SCT,OVC,0.00,WeatherDisplay:10.37,2013-03-12 13:01:00,
2013-03-12 09:06:00,40.3,37.6,29.74,WNW,290,23.0,23.0,90,0.00,SCT,OVC,0.00,WeatherDisplay:10.37,2013-03-12 13:06:00,
2013-03-12 09:11:00,40.5,37.8,29.74,WNW,290,23.0,23.0,90,0.00,SCT,OVC,0.00,WeatherDisplay:10.37,2013-03-12 13:11:00,
2013-03-12 09:16:00,40.6,37.7,29.74,NW,310,23.0,23.0,89,0.00,CLR,OVC,0.00,WeatherDisplay:10.37,2013-03-12 13:16:00,
2013-03-12 09:21:00,41.2,38.2,29.74,NW,310,20.7,20.7,89,0.00,BKN,OVC,0.00,WeatherDisplay:10.37,2013-03-12 13:21:00,
2013-03-12 09:26:00,41.2,38.2,29.74,NW,310,20.7,20.7,89,0.00,CLR,OVC,0.00,WeatherDisplay:10.37,2013-03-12 13:26:00,
2013-03-12 09:31:00,41.5,38.3,29.74,NW,310,20.7,20.7,88,0.00,CLR,OVC,0.00,WeatherDisplay:10.37,2013-03-12 13:31:00,
2013-03-12 09:36:00,41.7,38.1,29.74,NW,310,20.7,20.7,87,0.00,BKN,OVC,0.00,WeatherDisplay:10.37,2013-03-12 13:36:00,
2013-03-12 09:41:00,42.1,38.5,29.75,NW,310,20.7,20.7,87,0.00,CLR,OVC,0.00,WeatherDisplay:10.37,2013-03-12 13:41:00,
2013-03-12 09:46:00,42.4,38.5,29.75,NW,310,20.7,20.7,86,0.00,CLR,OVC,0.00,WeatherDisplay:10.37,2013-03-12 13:46:00,
2013-03-12 09:51:00,43.0,39.1,29.75,NW,310,20.7,20.7,86,0.00,CLR,OVC,0.00,WeatherDisplay:10.37,2013-03-12 13:51:00,
2013-03-12 09:56:00,43.2,39.3,29.75,NW,310,20.7,20.7,86,0.00,CLR,OVC,0.00,WeatherDisplay:10.37,2013-03-12 13:56:00,
2013-03-12 10:02:00,43.5,39.0,29.75,NW,310,20.7,20.7,84,0.00,CLR,OVC,0.00,WeatherDisplay:10.37,2013-03-12 14:02:00,
2013-03-12 10:07:00,43.9,39.4,29.75,NW,310,20.7,20.7,84,0.00,CLR,OVC,0.00,WeatherDisplay:10.37,2013-03-12 14:07:00,
2013-03-12 10:12:00,44.4,39.9,29.75,NW,310,20.7,20.7,84,0.00,CLR,OVC,0.00,WeatherDisplay:10.37,2013-03-12 14:12:00,
2013-03-12 10:17:00,44.8,39.9,29.75,WNW,300,25.3,25.3,83,0.00,CLR,OVC,0.00,WeatherDisplay:10.37,2013-03-12 14:17:00,
2013-03-12 10:22:00,45.1,39.7,29.75,WNW,300,25.3,25.3,81,0.00,CLR,OVC,0.00,WeatherDisplay:10.37,2013-03-12 14:22:00,
2013-03-12 10:27:00,45.1,39.3,29.75,WNW,300,25.3,25.3,80,0.00,CLR,OVC,0.00,WeatherDisplay:10.37,2013-03-12 14:27:00,
2013-03-12 10:32:00,45.3,39.2,29.75,WNW,300,25.3,25.3,79,0.00,CLR,OVC,0.00,WeatherDisplay:10.37,2013-03-12 14:32:00,
2013-03-12 10:37:00,45.9,40.0,29.75,WNW,300,25.3,25.3,80,0.00,CLR,OVC,0.00,WeatherDisplay:10.37,2013-03-12 14:37:00,
2013-03-12 10:42:00,46.2,40.4,29.76,WNW,300,25.3,25.3,80,0.00,CLR,OVC,0.00,WeatherDisplay:10.37,2013-03-12 14:42:00,
2013-03-12 10:47:00,46.2,39.7,29.76,WNW,300,25.3,25.3,78,0.00,CLR,OVC,0.00,WeatherDisplay:10.37,2013-03-12 14:47:00,
2013-03-12 10:52:00,46.6,40.1,29.76,WNW,300,25.3,25.3,78,0.00,CLR,OVC,0.00,WeatherDisplay:10.37,2013-03-12 14:52:00,
2013-03-12 10:57:00,46.9,39.8,29.76,WNW,300,25.3,25.3,76,0.00,CLR,OVC,0.00,WeatherDisplay:10.37,2013-03-12 14:57:00,
2013-03-12 11:02:00,47.1,40.3,29.77,WNW,300,25.3,25.3,77,0.00,CLR,OVC,0.00,WeatherDisplay:10.37,2013-03-12 15:02:00,
2013-03-12 11:07:00,47.5,39.9,29.77,WNW,300,25.3,25.3,75,0.00,CLR,OVC,0.00,WeatherDisplay:10.37,2013-03-12 15:07:00,
2013-03-12 11:12:00,47.5,39.3,29.77,WNW,300,25.3,25.3,73,0.00,CLR,OVC,0.00,WeatherDisplay:10.37,2013-03-12 15:12:00,
2013-03-12 11:17:00,47.8,39.6,29.77,West,270,25.3,25.3,73,0.00,CLR,OVC,0.00,WeatherDisplay:10.37,2013-03-12 15:17:00,
2013-03-12 11:22:00,48.0,39.4,29.78,West,270,12.7,12.7,72,0.00,CLR,OVC,0.00,WeatherDisplay:10.37,2013-03-12 15:22:00,
2013-03-12 11:27:00,48.4,39.4,29.78,West,270,12.7,12.7,71,0.00,CLR,OVC,0.00,WeatherDisplay:10.37,2013-03-12 15:27:00,
2013-03-12 11:32:00,48.7,40.1,29.78,West,270,12.7,12.7,72,0.00,CLR,OVC,0.00,WeatherDisplay:10.37,2013-03-12 15:32:00,
2013-03-12 11:37:00,49.1,40.5,29.78,West,270,12.7,12.7,72,0.00,CLR,OVC,0.00,WeatherDisplay:10.37,2013-03-12 15:37:00,
2013-03-12 11:42:00,49.6,40.6,29.78,West,270,12.7,12.7,71,0.00,CLR,OVC,0.00,WeatherDisplay:10.37,2013-03-12 15:42:00,
2013-03-12 11:47:00,49.8,40.4,29.78,West,270,12.7,12.7,70,0.00,CLR,OVC,0.00,WeatherDisplay:10.37,2013-03-12 15:47:00,
2013-03-12 11:53:00,50.4,40.6,29.79,West,270,12.7,12.7,69,0.00,CLR,OVC,0.00,WeatherDisplay:10.37,2013-03-12 15:53:00,
2013-03-12 11:58:00,50.5,40.4,29.78,West,270,12.7,12.7,68,0.00,CLR,OVC,0.00,WeatherDisplay:10.37,2013-03-12 15:58:00,
2013-03-12 12:03:00,50.7,40.2,29.78,West,270,12.7,12.7,67,0.00,CLR,OVC,0.00,WeatherDisplay:10.37,2013-03-12 16:03:00,
2013-03-12 12:08:00,51.1,40.1,29.78,West,270,12.7,12.7,66,0.00,CLR,OVC,0.00,WeatherDisplay:10.37,2013-03-12 16:08:00,
2013-03-12 12:13:00,51.6,39.8,29.79,West,270,12.7,12.7,64,0.00,CLR,OVC,0.00,WeatherDisplay:10.37,2013-03-12 16:13:00,
2013-03-12 12:18:00,51.8,40.4,29.79,West,280,13.8,13.8,65,0.00,CLR,OVC,0.00,WeatherDisplay:10.37,2013-03-12 16:18:00,
2013-03-12 12:23:00,52.5,40.7,29.79,West,280,13.8,13.8,64,0.00,CLR,OVC,0.00,WeatherDisplay:10.37,2013-03-12 16:23:00,
2013-03-12 12:28:00,52.9,40.2,29.79,West,280,13.8,13.8,62,0.00,CLR,OVC,0.00,WeatherDisplay:10.37,2013-03-12 16:28:00,
2013-03-12 12:33:00,53.2,40.1,29.79,West,280,13.8,13.8,61,0.00,CLR,OVC,0.00,WeatherDisplay:10.37,2013-03-12 16:33:00,
2013-03-12 12:38:00,53.6,40.9,29.80,West,280,13.8,13.8,62,0.00,CLR,OVC,0.00,WeatherDisplay:10.37,2013-03-12 16:38:00,
2013-03-12 12:43:00,54.1,41.0,29.79,West,280,13.8,13.8,61,0.00,CLR,OVC,0.00,WeatherDisplay:10.37,2013-03-12 16:43:00,
2013-03-12 12:48:00,54.5,40.9,29.79,West,280,13.8,13.8,60,0.00,CLR,OVC,0.00,WeatherDisplay:10.37,2013-03-12 16:48:00,
2013-03-12 12:53:00,55.0,41.0,29.79,West,280,13.8,13.8,59,0.00,CLR,OVC,0.00,WeatherDisplay:10.37,2013-03-12 16:53:00,
2013-03-12 12:58:00,55.2,40.7,29.78,West,280,13.8,13.8,58,0.00,CLR,OVC,0.00,WeatherDisplay:10.37,2013-03-12 16:58:00,
2013-03-12 13:03:00,55.2,40.2,29.78,West,280,13.8,13.8,57,0.00,CLR,OVC,0.00,WeatherDisplay:10.37,2013-03-12 17:03:00,
2013-03-12 13:08:00,55.9,40.5,29.78,West,280,13.8,13.8,56,0.00,CLR,OVC,0.00,WeatherDisplay:10.37,2013-03-12 17:08:00,
2013-03-12 13:13:00,56.1,40.6,29.79,West,280,13.8,13.8,56,0.00,CLR,OVC,0.00,WeatherDisplay:10.37,2013-03-12 17:13:00,
2013-03-12 13:18:00,56.5,40.5,29.78,West,280,24.2,24.2,55,0.00,CLR,OVC,0.00,WeatherDisplay:10.37,2013-03-12 17:18:00,
2013-03-12 13:23:00,57.0,40.5,29.78,West,280,24.2,24.2,54,0.00,CLR,OVC,0.00,WeatherDisplay:10.37,2013-03-12 17:23:00,
2013-03-12 13:28:00,57.4,40.4,29.78,West,280,24.2,24.2,53,0.00,CLR,OVC,0.00,WeatherDisplay:10.37,2013-03-12 17:28:00,
2013-03-12 13:33:00,57.6,40.1,29.78,West,280,24.2,24.2,52,0.00,CLR,OVC,0.00,WeatherDisplay:10.37,2013-03-12 17:33:00,
2013-03-12 13:38:00,57.7,39.2,29.78,West,280,24.2,24.2,50,0.00,CLR,OVC,0.00,WeatherDisplay:10.37,2013-03-12 17:38:00,
2013-03-12 13:43:00,57.7,39.2,29.78,West,280,24.2,24.2,50,0.00,CLR,OVC,0.00,WeatherDisplay:10.37,2013-03-12 17:43:00,
2013-03-12 13:48:00,57.7,38.7,29.78,West,280,24.2,24.2,49,0.00,CLR,OVC,0.00,WeatherDisplay:10.37,2013-03-12 17:48:00,
2013-03-12 13:53:00,57.7,39.2,29.78,West,280,24.2,24.2,50,0.00,CLR,OVC,0.00,WeatherDisplay:10.37,2013-03-12 17:53:00,
2013-03-12 13:58:00,57.9,39.4,29.78,West,280,24.2,24.2,50,0.00,CLR,OVC,0.00,WeatherDisplay:10.37,2013-03-12 17:58:00,
2013-03-12 14:03:00,58.3,39.7,29.79,West,280,24.2,24.2,50,0.00,CLR,OVC,0.00,WeatherDisplay:10.37,2013-03-12 18:03:00,
2013-03-12 14:08:00,58.6,39.5,29.78,West,280,24.2,24.2,49,0.00,CLR,OVC,0.00,WeatherDisplay:10.37,2013-03-12 18:08:00,
2013-03-12 14:13:00,58.6,39.0,29.79,West,280,24.2,24.2,48,0.00,CLR,OVC,0.00,WeatherDisplay:10.37,2013-03-12 18:13:00,
2013-03-12 14:18:00,58.8,38.1,29.78,West,280,11.5,11.5,46,0.00,CLR,OVC,0.00,WeatherDisplay:10.37,2013-03-12 18:18:00,
2013-03-12 14:23:00,58.8,38.6,29.78,West,280,11.5,11.5,47,0.00,CLR,OVC,0.00,WeatherDisplay:10.37,2013-03-12 18:23:00,
2013-03-12 14:28:00,58.8,37.5,29.78,West,280,11.5,11.5,45,0.00,CLR,OVC,0.00,WeatherDisplay:10.37,2013-03-12 18:28:00,
2013-03-12 14:33:00,58.8,36.9,29.79,West,280,11.5,11.5,44,0.00,CLR,OVC,0.00,WeatherDisplay:10.37,2013-03-12 18:33:00,
2013-03-12 14:38:00,59.0,36.5,29.78,West,280,11.5,11.5,43,0.00,CLR,OVC,0.00,WeatherDisplay:10.37,2013-03-12 18:38:00,
2013-03-12 14:43:00,59.4,37.4,29.77,West,280,11.5,11.5,44,0.00,CLR,OVC,0.00,WeatherDisplay:10.37,2013-03-12 18:43:00,
2013-03-12 14:48:00,59.5,37.0,29.78,West,280,11.5,11.5,43,0.00,CLR,OVC,0.00,WeatherDisplay:10.37,2013-03-12 18:48:00,
2013-03-12 14:53:00,59.5,37.0,29.78,West,280,11.5,11.5,43,0.00,CLR,OVC,0.00,WeatherDisplay:10.37,2013-03-12 18:53:00,
2013-03-12 14:58:00,59.5,37.0,29.78,West,280,11.5,11.5,43,0.00,CLR,OVC,0.00,WeatherDisplay:10.37,2013-03-12 18:58:00,
2013-03-12 15:03:00,59.7,37.2,29.78,West,280,11.5,11.5,43,0.00,CLR,OVC,0.00,WeatherDisplay:10.37,2013-03-12 19:03:00,
2013-03-12 15:08:00,59.7,36.6,29.78,West,280,11.5,11.5,42,0.00,CLR,OVC,0.00,WeatherDisplay:10.37,2013-03-12 19:08:00,
2013-03-12 15:13:00,59.7,36.6,29.78,West,280,11.5,11.5,42,0.00,CLR,OVC,0.00,WeatherDisplay:10.37,2013-03-12 19:13:00,
2013-03-12 15:18:00,59.7,37.8,29.78,West,280,28.8,28.8,44,0.00,CLR,OVC,0.00,WeatherDisplay:10.37,2013-03-12 19:18:00,
2013-03-12 15:23:00,59.9,38.5,29.78,West,280,28.8,28.8,45,0.00,CLR,OVC,0.00,WeatherDisplay:10.37,2013-03-12 19:23:00,
2013-03-12 15:28:00,59.9,39.1,29.77,West,280,28.8,28.8,46,0.00,CLR,OVC,0.00,WeatherDisplay:10.37,2013-03-12 19:28:00,
2013-03-12 15:33:00,59.7,38.9,29.77,West,280,28.8,28.8,46,0.00,CLR,OVC,0.00,WeatherDisplay:10.37,2013-03-12 19:33:00,
2013-03-12 15:38:00,59.7,38.9,29.77,West,280,28.8,28.8,46,0.00,CLR,OVC,0.00,WeatherDisplay:10.37,2013-03-12 19:38:00,
2013-03-12 15:43:00,59.7,39.4,29.77,West,280,28.8,28.8,47,0.00,CLR,OVC,0.00,WeatherDisplay:10.37,2013-03-12 19:43:00,
2013-03-12 15:48:00,59.7,39.4,29.77,West,280,28.8,28.8,47,0.00,CLR,OVC,0.00,WeatherDisplay:10.37,2013-03-12 19:48:00,
2013-03-12 15:53:00,59.7,38.9,29.77,West,280,28.8,28.8,46,0.00,CLR,OVC,0.00,WeatherDisplay:10.37,2013-03-12 19:53:00,
2013-03-12 15:58:00,59.9,39.6,29.77,West,280,28.8,28.8,47,0.00,CLR,OVC,0.00,WeatherDisplay:10.37,2013-03-12 19:58:00,
2013-03-12 16:03:00,59.9,39.6,29.77,West,280,28.8,28.8,47,0.00,CLR,OVC,0.00,WeatherDisplay:10.37,2013-03-12 20:03:00,
2013-03-12 16:08:00,60.4,40.6,29.77,West,280,28.8,28.8,48,0.00,CLR,OVC,0.00,WeatherDisplay:10.37,2013-03-12 20:08:00,
2013-03-12 16:13:00,60.4,39.5,29.77,West,280,28.8,28.8,46,0.00,CLR,OVC,0.00,WeatherDisplay:10.37,2013-03-12 20:13:00,
2013-03-12 16:18:00,60.4,39.5,29.76,West,280,13.8,13.8,46,0.00,CLR,OVC,0.00,WeatherDisplay:10.37,2013-03-12 20:18:00,
2013-03-12 16:23:00,60.4,39.5,29.77,West,280,13.8,13.8,46,0.00,CLR,OVC,0.00,WeatherDisplay:10.37,2013-03-12 20:23:00,
2013-03-12 16:28:00,60.6,40.3,29.77,West,280,13.8,13.8,47,0.00,CLR,OVC,0.00,WeatherDisplay:10.37,2013-03-12 20:28:00,
2013-03-12 16:33:00,60.6,39.7,29.77,West,280,13.8,13.8,46,0.00,CLR,OVC,0.00,WeatherDisplay:10.37,2013-03-12 20:33:00,
2013-03-12 16:38:00,60.6,39.7,29.77,West,280,13.8,13.8,46,0.00,CLR,OVC,0.00,WeatherDisplay:10.37,2013-03-12 20:38:00,
2013-03-12 16:43:00,60.6,39.7,29.77,West,280,13.8,13.8,46,0.00,CLR,OVC,0.00,WeatherDisplay:10.37,2013-03-12 20:43:00,
2013-03-12 16:48:00,60.6,39.7,29.77,West,280,13.8,13.8,46,0.00,CLR,OVC,0.00,WeatherDisplay:10.37,2013-03-12 20:48:00,
2013-03-12 16:53:00,60.4,39.5,29.77,West,280,13.8,13.8,46,0.00,CLR,OVC,0.00,WeatherDisplay:10.37,2013-03-12 20:53:00,
2013-03-12 16:58:00,60.4,39.5,29.77,West,280,13.8,13.8,46,0.00,CLR,OVC,0.00,WeatherDisplay:10.37,2013-03-12 20:58:00,
2013-03-12 17:03:00,60.4,39.5,29.78,West,280,13.8,13.8,46,0.00,CLR,OVC,0.00,WeatherDisplay:10.37,2013-03-12 21:03:00,
2013-03-12 17:08:00,60.4,39.5,29.78,West,280,13.8,13.8,46,0.00,CLR,OVC,0.00,WeatherDisplay:10.37,2013-03-12 21:08:00,
2013-03-12 17:13:00,59.9,38.5,29.78,West,280,13.8,13.8,45,0.00,CLR,OVC,0.00,WeatherDisplay:10.37,2013-03-12 21:13:00,
2013-03-12 17:18:00,59.5,38.7,29.78,West,270,26.5,26.5,46,0.00,CLR,OVC,0.00,WeatherDisplay:10.37,2013-03-12 21:18:00,
2013-03-12 17:23:00,59.5,38.7,29.78,West,270,26.5,26.5,46,0.00,CLR,OVC,0.00,WeatherDisplay:10.37,2013-03-12 21:23:00,
2013-03-12 17:28:00,59.4,38.6,29.78,West,270,26.5,26.5,46,0.00,CLR,OVC,0.00,WeatherDisplay:10.37,2013-03-12 21:28:00,
2013-03-12 17:33:00,59.4,38.6,29.78,West,270,26.5,26.5,46,0.00,CLR,OVC,0.00,WeatherDisplay:10.37,2013-03-12 21:33:00,
2013-03-12 17:38:00,59.2,38.4,29.78,West,270,26.5,26.5,46,0.00,CLR,OVC,0.00,WeatherDisplay:10.37,2013-03-12 21:38:00,
2013-03-12 17:43:00,58.8,38.1,29.79,West,270,26.5,26.5,46,0.00,CLR,OVC,0.00,WeatherDisplay:10.37,2013-03-12 21:43:00,
2013-03-12 17:48:00,58.6,37.9,29.79,West,270,26.5,26.5,46,0.00,CLR,OVC,0.00,WeatherDisplay:10.37,2013-03-12 21:48:00,
2013-03-12 17:53:00,58.3,38.1,29.79,West,270,26.5,26.5,47,0.00,CLR,OVC,0.00,WeatherDisplay:10.37,2013-03-12 21:53:00,
2013-03-12 17:58:00,57.9,37.2,29.79,West,270,26.5,26.5,46,0.00,CLR,OVC,0.00,WeatherDisplay:10.37,2013-03-12 21:58:00,
2013-03-12 18:03:00,57.9,37.2,29.79,West,270,26.5,26.5,46,0.00,CLR,OVC,0.00,WeatherDisplay:10.37,2013-03-12 22:03:00,
2013-03-12 18:08:00,57.7,37.1,29.79,West,270,26.5,26.5,46,0.00,CLR,OVC,0.00,WeatherDisplay:10.37,2013-03-12 22:08:00,
2013-03-12 18:13:00,57.4,37.3,29.79,West,270,26.5,26.5,47,0.00,CLR,OVC,0.00,WeatherDisplay:10.37,2013-03-12 22:13:00,
2013-03-12 18:18:00,57.0,37.0,29.80,West,270,13.8,13.8,47,0.00,CLR,OVC,0.00,WeatherDisplay:10.37,2013-03-12 22:18:00,
2013-03-12 18:23:00,56.8,36.8,29.80,West,270,13.8,13.8,47,0.00,CLR,OVC,0.00,WeatherDisplay:10.37,2013-03-12 22:23:00,
2013-03-12 18:28:00,56.8,37.3,29.80,West,270,13.8,13.8,48,0.00,CLR,OVC,0.00,WeatherDisplay:10.37,2013-03-12 22:28:00,
2013-03-12 18:33:00,56.5,37.0,29.80,West,270,13.8,13.8,48,0.00,CLR,OVC,0.00,WeatherDisplay:10.37,2013-03-12 22:33:00,
2013-03-12 18:38:00,56.3,36.8,29.80,West,270,13.8,13.8,48,0.00,CLR,OVC,0.00,WeatherDisplay:10.37,2013-03-12 22:38:00,
2013-03-12 18:43:00,55.9,36.0,29.80,West,270,13.8,13.8,47,0.00,CLR,OVC,0.00,WeatherDisplay:10.37,2013-03-12 22:43:00,
2013-03-12 18:48:00,55.6,36.2,29.80,West,270,13.8,13.8,48,0.00,CLR,OVC,0.00,WeatherDisplay:10.37,2013-03-12 22:48:00,
2013-03-12 18:53:00,55.6,36.2,29.81,West,270,13.8,13.8,48,0.00,CLR,OVC,0.00,WeatherDisplay:10.37,2013-03-12 22:53:00,
2013-03-12 18:58:00,55.2,35.9,29.81,West,270,13.8,13.8,48,0.00,CLR,OVC,0.00,WeatherDisplay:10.37,2013-03-12 22:58:00,
2013-03-12 19:03:00,55.0,35.7,29.82,West,270,13.8,13.8,48,0.00,CLR,OVC,0.00,WeatherDisplay:10.37,2013-03-12 23:03:00,
2013-03-12 19:08:00,54.9,35.5,29.82,West,270,13.8,13.8,48,0.00,CLR,OVC,0.00,WeatherDisplay:10.37,2013-03-12 23:08:00,
2013-03-12 19:13:00,54.5,35.7,29.83,West,270,13.8,13.8,49,0.00,CLR,OVC,0.00,WeatherDisplay:10.37,2013-03-12 23:13:00,
2013-03-12 19:18:00,54.3,35.5,29.83,WNW,290,13.8,13.8,49,0.00,CLR,OVC,0.00,WeatherDisplay:10.37,2013-03-12 23:18:00,
2013-03-12 19:23:00,54.1,34.9,29.83,WNW,290,13.8,13.8,48,0.00,CLR,OVC,0.00,WeatherDisplay:10.37,2013-03-12 23:23:00,
2013-03-12 19:28:00,53.8,34.5,29.83,WNW,290,13.8,13.8,48,0.00,CLR,OVC,0.00,WeatherDisplay:10.37,2013-03-12 23:28:00,
2013-03-12 19:33:00,53.8,34.5,29.83,WNW,290,13.8,13.8,48,0.00,CLR,OVC,0.00,WeatherDisplay:10.37,2013-03-12 23:33:00,
2013-03-12 19:38:00,53.4,34.2,29.83,WNW,290,13.8,13.8,48,0.00,CLR,OVC,0.00,WeatherDisplay:10.37,2013-03-12 23:38:00,
2013-03-12 19:43:00,53.2,34.0,29.84,WNW,290,13.8,13.8,48,0.00,CLR,OVC,0.00,WeatherDisplay:10.37,2013-03-12 23:43:00,
2013-03-12 19:48:00,53.1,34.4,29.84,WNW,290,13.8,13.8,49,0.00,CLR,OVC,0.00,WeatherDisplay:10.37,2013-03-12 23:48:00,
2013-03-12 19:53:00,52.9,34.2,29.84,WNW,290,13.8,13.8,49,0.00,CLR,OVC,0.00,WeatherDisplay:10.37,2013-03-12 23:53:00,
2013-03-12 19:58:00,52.5,33.9,29.84,WNW,290,13.8,13.8,49,0.00,CLR,OVC,0.00,WeatherDisplay:10.37,2013-03-12 23:58:00,
2013-03-12 20:03:00,52.3,34.2,29.85,WNW,290,13.8,13.8,50,0.00,CLR,OVC,0.00,WeatherDisplay:10.37,2013-03-13 00:03:00,
2013-03-12 20:08:00,52.0,33.9,29.85,WNW,290,13.8,13.8,50,0.00,CLR,OVC,0.00,WeatherDisplay:10.37,2013-03-13 00:08:00,
2013-03-12 20:13:00,51.8,33.7,29.86,WNW,290,13.8,13.8,50,0.00,CLR,OVC,0.00,WeatherDisplay:10.37,2013-03-13 00:13:00,
2013-03-12 20:18:00,51.6,34.6,29.86,WNW,300,8.1,8.1,52,0.00,CLR,OVC,0.00,WeatherDisplay:10.37,2013-03-13 00:18:00,
2013-03-12 20:24:00,51.4,34.4,29.85,WNW,300,8.1,8.1,52,0.00,CLR,OVC,0.00,WeatherDisplay:10.37,2013-03-13 00:24:00,
2013-03-12 20:29:00,51.1,34.5,29.85,WNW,300,8.1,8.1,53,0.00,CLR,OVC,0.00,WeatherDisplay:10.37,2013-03-13 00:29:00,
2013-03-12 20:34:00,50.7,34.7,29.85,WNW,300,8.1,8.1,54,0.00,CLR,OVC,0.00,WeatherDisplay:10.37,2013-03-13 00:34:00,
2013-03-12 20:39:00,50.4,34.3,29.86,WNW,300,8.1,8.1,54,0.00,CLR,OVC,0.00,WeatherDisplay:10.37,2013-03-13 00:39:00,
2013-03-12 20:44:00,50.2,34.6,29.86,WNW,300,8.1,8.1,55,0.00,CLR,OVC,0.00,WeatherDisplay:10.37,2013-03-13 00:44:00,
2013-03-12 20:49:00,49.8,34.7,29.86,WNW,300,8.1,8.1,56,0.00,CLR,OVC,0.00,WeatherDisplay:10.37,2013-03-13 00:49:00,
2013-03-12 20:54:00,49.6,34.6,29.86,WNW,300,8.1,8.1,56,0.00,CLR,OVC,0.00,WeatherDisplay:10.37,2013-03-13 00:54:00,
2013-03-12 20:59:00,49.1,34.5,29.86,WNW,300,8.1,8.1,57,0.00,CLR,OVC,0.00,WeatherDisplay:10.37,2013-03-13 00:59:00,
2013-03-12 21:04:00,48.7,34.6,29.86,WNW,300,8.1,8.1,58,0.00,CLR,OVC,0.00,WeatherDisplay:10.37,2013-03-13 01:04:00,
2013-03-12 21:09:00,48.6,34.4,29.86,WNW,300,8.1,8.1,58,0.00,CLR,OVC,0.00,WeatherDisplay:10.37,2013-03-13 01:09:00,
2013-03-12 21:14:00,48.4,34.7,29.86,WNW,300,8.1,8.1,59,0.00,CLR,OVC,0.00,WeatherDisplay:10.37,2013-03-13 01:14:00,
2013-03-12 21:19:00,48.0,34.4,29.87,NW,320,5.8,5.8,59,0.00,CLR,OVC,0.00,WeatherDisplay:10.37,2013-03-13 01:19:00,
2013-03-12 21:24:00,47.7,34.4,29.87,NW,320,5.8,5.8,60,0.00,CLR,OVC,0.00,WeatherDisplay:10.37,2013-03-13 01:24:00,
2013-03-12 21:29:00,47.1,34.4,29.87,NW,320,5.8,5.8,61,0.00,CLR,OVC,0.00,WeatherDisplay:10.37,2013-03-13 01:29:00,
2013-03-12 21:34:00,46.9,34.2,29.87,NW,320,5.8,5.8,61,0.00,CLR,OVC,0.00,WeatherDisplay:10.37,2013-03-13 01:34:00,
2013-03-12 21:39:00,46.8,34.4,29.87,NW,320,5.8,5.8,62,0.00,CLR,OVC,0.00,WeatherDisplay:10.37,2013-03-13 01:39:00,
2013-03-12 21:44:00,46.2,33.9,29.88,NW,320,5.8,5.8,62,0.00,CLR,OVC,0.00,WeatherDisplay:10.37,2013-03-13 01:44:00,
2013-03-12 21:49:00,46.2,34.3,29.88,NW,320,5.8,5.8,63,0.00,CLR,OVC,0.00,WeatherDisplay:10.37,2013-03-13 01:49:00,
2013-03-12 21:54:00,46.0,34.1,29.88,NW,320,5.8,5.8,63,0.00,CLR,OVC,0.00,WeatherDisplay:10.37,2013-03-13 01:54:00,
2013-03-12 21:59:00,45.7,34.2,29.88,NW,320,5.8,5.8,64,0.00,CLR,OVC,0.00,WeatherDisplay:10.37,2013-03-13 01:59:00,
2013-03-12 22:04:00,45.3,33.9,29.88,NW,320,5.8,5.8,64,0.00,CLR,OVC,0.00,WeatherDisplay:10.37,2013-03-13 02:04:00,
2013-03-12 22:09:00,45.1,33.7,29.88,NW,320,5.8,5.8,64,0.00,CLR,OVC,0.00,WeatherDisplay:10.37,2013-03-13 02:09:00,
2013-03-12 22:14:00,45.0,33.5,29.88,NW,320,5.8,5.8,64,0.00,CLR,OVC,0.00,WeatherDisplay:10.37,2013-03-13 02:14:00,
2013-03-12 22:19:00,44.8,33.7,29.88,WNW,300,5.8,5.8,65,0.00,CLR,OVC,0.00,WeatherDisplay:10.37,2013-03-13 02:19:00,
2013-03-12 22:24:00,44.4,33.4,29.88,WNW,300,5.8,5.8,65,0.00,CLR,OVC,0.00,WeatherDisplay:10.37,2013-03-13 02:24:00,
2013-03-12 22:29:00,44.2,33.6,29.88,WNW,300,5.8,5.8,66,0.00,CLR,OVC,0.00,WeatherDisplay:10.37,2013-03-13 02:29:00,
2013-03-12 22:34:00,44.1,33.8,29.89,WNW,300,5.8,5.8,67,0.00,CLR,OVC,0.00,WeatherDisplay:10.37,2013-03-13 02:34:00,
2013-03-12 22:39:00,43.7,33.5,29.89,WNW,300,5.8,5.8,67,0.00,CLR,OVC,0.00,WeatherDisplay:10.37,2013-03-13 02:39:00,
2013-03-12 22:44:00,43.5,33.3,29.89,WNW,300,5.8,5.8,67,0.00,CLR,OVC,0.00,WeatherDisplay:10.37,2013-03-13 02:44:00,
2013-03-12 22:49:00,43.3,33.1,29.90,WNW,300,5.8,5.8,67,0.00,CLR,OVC,0.00,WeatherDisplay:10.37,2013-03-13 02:49:00,
2013-03-12 22:54:00,43.2,33.3,29.90,WNW,300,5.8,5.8,68,0.00,CLR,OVC,0.00,WeatherDisplay:10.37,2013-03-13 02:54:00,
2013-03-12 22:59:00,43.0,33.1,29.90,WNW,300,5.8,5.8,68,0.00,CLR,OVC,0.00,WeatherDisplay:10.37,2013-03-13 02:59:00,
2013-03-12 23:04:00,42.6,33.2,29.90,WNW,300,5.8,5.8,69,0.00,CLR,OVC,0.00,WeatherDisplay:10.37,2013-03-13 03:04:00,
2013-03-12 23:09:00,42.6,33.2,29.91,WNW,300,5.8,5.8,69,0.00,CLR,OVC,0.00,WeatherDisplay:10.37,2013-03-13 03:09:00,
2013-03-12 23:14:00,42.4,33.0,29.90,WNW,300,5.8,5.8,69,0.00,CLR,OVC,0.00,WeatherDisplay:10.37,2013-03-13 03:14:00,
2013-03-12 23:19:00,42.4,33.0,29.91,WNW,300,5.8,5.8,69,0.00,CLR,OVC,0.00,WeatherDisplay:10.37,2013-03-13 03:19:00,
2013-03-12 23:24:00,42.1,33.0,29.91,WNW,300,5.8,5.8,70,0.00,CLR,OVC,0.00,WeatherDisplay:10.37,2013-03-13 03:24:00,
2013-03-12 23:29:00,41.9,32.8,29.91,WNW,300,5.8,5.8,70,0.00,CLR,OVC,0.00,WeatherDisplay:10.37,2013-03-13 03:29:00,
2013-03-12 23:34:00,41.9,33.2,29.91,WNW,300,5.8,5.8,71,0.00,CLR,OVC,0.00,WeatherDisplay:10.37,2013-03-13 03:34:00,
2013-03-12 23:39:00,41.7,33.0,29.91,WNW,300,5.8,5.8,71,0.00,CLR,OVC,0.00,WeatherDisplay:10.37,2013-03-13 03:39:00,
2013-03-12 23:44:00,41.5,33.2,29.91,WNW,300,5.8,5.8,72,0.00,CLR,OVC,0.00,WeatherDisplay:10.37,2013-03-13 03:44:00,
2013-03-12 23:49:00,41.5,33.2,29.91,WNW,300,5.8,5.8,72,0.00,CLR,OVC,0.00,WeatherDisplay:10.37,2013-03-13 03:49:00,
2013-03-12 23:54:00,41.4,33.0,29.91,WNW,300,5.8,5.8,72,0.00,CLR,OVC,0.00,WeatherDisplay:10.37,2013-03-13 03:54:00,
2013-03-12 23:59:00,41.2,33.2,29.91,WNW,300,5.8,5.8,73,0.00,CLR,OVC,0.00,WeatherDisplay:10.37,2013-03-13 03:59:00,